Weather History for Tomahawk, WI

Change the Weather History Date:

Wednesday, April 9, 2014

  Actual Average (KRHI) Record (KRHI)
Temperature  
Mean Temperature 37 °F 39 °F  
Max Temperature 55 °F 50 °F 76 °F (1987)
Min Temperature 19 °F 27 °F -3 °F (1923)
Degree Days  
Heating Degree Days 28 26  
Month to date heating degree days 254  
Since 1 July heating degree days 8049  
Cooling Degree Days 0 0  
Month to date cooling degree days 0  
Year to date cooling degree days 0  
Moisture  
Dew Point 25 °F    
Average Humidity 61    
Maximum Humidity 93    
Minimum Humidity 35    
Precipitation  
Precipitation 0.00 in 0.08 in 1.10 in (1922)
Month to date precipitation 0.68  
Year to date precipitation 4.29  
Snow  
Snow 0.00 in - 1.90 in (2008)
Month to date snowfall  
Since 1 July snowfall  
Snow Depth -    
Sea Level Pressure  
Sea Level Pressure 29.77 in    
Wind  
Wind Speed 2 mph (South)    
Max Wind Speed 10 mph    
Max Gust Speed 23 mph    
Visibility 10 miles    
Events      
T = Trace of Precipitation, MM = Missing Value Source: NWS Daily Summary

Daily Weather History Graph

Daily Weather History Graph

Search for Another Location

Airport:

Trip Planner

Search our weather history database for the weather conditions in past years. The results will help you decide how hot, cold, wet, or windy it might be!

Date:

Astronomy

Apr. 09, 2014 Rise Set
Actual Time 6:24 AM CDT 7:37 PM CDT
Civil Twilight 5:54 AM CDT 8:08 PM CDT
Nautical Twilight 5:17 AM CDT 8:45 PM CDT
Astronomical Twilight 4:38 AM CDT 9:23 PM CDT
Moon 2:11 PM CDT (4/9) 3:28 AM CDT (4/9)
Length of Visible Light 14h 14m
Length of Day
13h 13m
Waxing Gibbous, 72% of the Moon is Illuminated
Apr 9
Waxing Gibbous
Apr 15
Full
Apr 22
Last Quarter
Apr 29
New
May 6
First Quarter

Hourly Weather History & Observations

Time (CDT) Temp. Windchill Dew Point Humidity Pressure Visibility Wind Dir Wind Speed Gust Speed Precip Events Conditions
12:15 AM 25.5 °F - 23.0 °F 90% 29.93 in 10.0 mi Calm Calm - N/A   Clear
12:35 AM 23.9 °F - 21.6 °F 91% 29.92 in 10.0 mi Calm Calm - N/A   Clear
12:55 AM 24.1 °F - 21.7 °F 91% 29.92 in 10.0 mi Calm Calm - N/A   Clear
1:15 AM 25.0 °F - 22.5 °F 90% 29.92 in 10.0 mi Calm Calm - N/A   Clear
1:35 AM 24.6 °F - 21.7 °F 89% 29.92 in 10.0 mi Calm Calm - N/A   Clear
1:55 AM 23.0 °F - 20.3 °F 89% 29.92 in 10.0 mi Calm Calm - N/A   Clear
2:15 AM 23.7 °F - 21.0 °F 89% 29.91 in 10.0 mi Calm Calm - N/A   Clear
2:35 AM 22.8 °F - 20.5 °F 91% 29.91 in 10.0 mi Calm Calm - N/A   Clear
2:55 AM 22.5 °F - 20.3 °F 91% 29.90 in 10.0 mi Calm Calm - N/A   Clear
3:15 AM 21.2 °F - 18.9 °F 91% 29.90 in 10.0 mi Calm Calm - N/A   Clear
3:35 AM 21.2 °F - 19.2 °F 92% 29.90 in 10.0 mi Calm Calm - N/A   Clear
3:55 AM 22.1 °F - 20.1 °F 92% 29.90 in 10.0 mi Calm Calm - N/A   Clear
4:15 AM 19.8 °F - 17.8 °F 92% 29.90 in 10.0 mi Calm Calm - N/A   Clear
4:35 AM 20.3 °F - 18.3 °F 92% 29.90 in 10.0 mi Calm Calm - N/A   Clear
4:55 AM 22.3 °F - 20.5 °F 93% 29.91 in 10.0 mi Calm Calm - N/A   Clear
5:15 AM 19.2 °F - 16.7 °F 90% 29.91 in 10.0 mi Calm Calm - N/A   Clear
5:35 AM 19.6 °F - 17.4 °F 91% 29.91 in 10.0 mi Calm Calm - N/A   Clear
5:55 AM 20.3 °F - 18.1 °F 91% 29.91 in 10.0 mi Calm Calm - N/A   Clear
6:15 AM 19.8 °F - 17.6 °F 91% 29.91 in 10.0 mi Calm Calm - N/A   Clear
6:35 AM 20.5 °F - 18.3 °F 91% 29.91 in 10.0 mi Calm Calm - N/A   Clear
6:55 AM 22.3 °F - 20.3 °F 92% 29.90 in 10.0 mi Calm Calm - N/A   Clear
7:15 AM 22.5 °F - 20.1 °F 91% 29.90 in 10.0 mi Calm Calm - N/A   Clear
7:35 AM 24.8 °F - 22.3 °F 90% 29.90 in 10.0 mi Calm Calm - N/A   Clear
7:55 AM 27.7 °F - 24.8 °F 89% 29.90 in 10.0 mi Calm Calm - N/A   Scattered Clouds
8:15 AM 32.0 °F - 24.3 °F 73% 29.91 in 10.0 mi Calm Calm - N/A   Clear
8:35 AM 34.0 °F - 23.4 °F 65% 29.91 in 10.0 mi Calm Calm - N/A   Clear
8:55 AM 37.4 °F - 23.4 °F 57% 29.90 in 10.0 mi Calm Calm - N/A   Clear
9:15 AM 40.3 °F - 22.8 °F 50% 29.90 in 10.0 mi Calm Calm - N/A   Clear
9:35 AM 41.5 °F 39.6 °F 22.8 °F 47% 29.89 in 10.0 mi SSW 3.5 mph - N/A   Clear
9:55 AM 42.8 °F 40.1 °F 21.9 °F 44% 29.89 in 10.0 mi SSW 4.6 mph - N/A   Clear
10:15 AM 43.9 °F - 23.0 °F 44% 29.88 in 10.0 mi Calm Calm - N/A   Mostly Cloudy
10:35 AM 43.5 °F - 23.0 °F 44% 29.87 in 10.0 mi Calm Calm - N/A   Mostly Cloudy
10:55 AM 45.0 °F 41.2 °F 22.8 °F 42% 29.86 in 10.0 mi SSW 6.9 mph - N/A   Scattered Clouds
11:15 AM 44.4 °F 42.0 °F 22.8 °F 43% 29.86 in 10.0 mi SW 4.6 mph - N/A   Mostly Cloudy
11:35 AM 43.3 °F - 23.9 °F 46% 29.85 in 10.0 mi Calm Calm - N/A   Overcast
11:55 AM 43.9 °F 42.3 °F 25.0 °F 47% 29.84 in 10.0 mi South 3.5 mph - N/A   Overcast
12:15 PM 45.5 °F 41.3 °F 25.9 °F 46% 29.83 in 10.0 mi South 8.1 mph - N/A   Mostly Cloudy
12:35 PM 46.2 °F 41.2 °F 25.7 °F 45% 29.81 in 10.0 mi South 10.4 mph 17.3 mph N/A   Scattered Clouds
12:55 PM 47.3 °F - 26.1 °F 44% 29.80 in 10.0 mi South 4.6 mph - N/A   Scattered Clouds
1:15 PM 47.8 °F - 26.2 °F 43% 29.78 in 10.0 mi Calm Calm - N/A   Scattered Clouds
1:35 PM 49.1 °F - 27.1 °F 43% 29.76 in 10.0 mi South 6.9 mph - N/A   Mostly Cloudy
1:55 PM 49.3 °F - 25.9 °F 40% 29.75 in 10.0 mi South 5.8 mph 17.3 mph N/A   Overcast
2:15 PM 50.9 °F - 25.9 °F 38% 29.74 in 10.0 mi SSE 8.1 mph 16.1 mph N/A   Overcast
2:35 PM 50.9 °F - 26.4 °F 39% 29.73 in 10.0 mi South 9.2 mph 16.1 mph N/A   Overcast
2:55 PM 51.8 °F - 26.8 °F 38% 29.72 in 10.0 mi South 9.2 mph 18.4 mph N/A   Mostly Cloudy
3:15 PM 52.0 °F - 27.1 °F 38% 29.71 in 10.0 mi South 5.8 mph 19.6 mph N/A   Scattered Clouds
3:35 PM 52.5 °F - 27.5 °F 38% 29.70 in 10.0 mi South 4.6 mph 23.0 mph N/A   Clear
3:55 PM 53.8 °F - 28.0 °F 37% 29.69 in 10.0 mi South 5.8 mph - N/A   Clear
4:15 PM 54.0 °F - 28.0 °F 37% 29.68 in 10.0 mi South 6.9 mph 17.3 mph N/A   Clear
4:35 PM 54.5 °F - 28.4 °F 37% 29.67 in 10.0 mi South 8.1 mph - N/A   Clear
4:55 PM 54.7 °F - 28.2 °F 36% 29.66 in 10.0 mi South 9.2 mph 17.3 mph N/A   Clear
5:15 PM 55.2 °F - 28.0 °F 35% 29.65 in 10.0 mi South 9.2 mph 20.7 mph N/A   Clear
5:35 PM 55.0 °F - 29.1 °F 37% 29.65 in 10.0 mi South 5.8 mph - N/A   Scattered Clouds
5:55 PM 54.5 °F - 29.8 °F 39% 29.64 in 10.0 mi Calm Calm - N/A   Clear
6:15 PM 55.4 °F - 29.5 °F 37% 29.63 in 10.0 mi SSW 10.4 mph 19.6 mph N/A   Clear
6:35 PM 54.9 °F - 29.7 °F 38% 29.62 in 10.0 mi South 5.8 mph - N/A   Clear
6:55 PM 53.8 °F - 30.2 °F 41% 29.62 in 10.0 mi SSW 5.8 mph - N/A   Clear
7:15 PM 52.3 °F - 30.9 °F 44% 29.62 in 10.0 mi South 5.8 mph - N/A   Clear
7:35 PM 51.8 °F - 31.1 °F 45% 29.61 in 10.0 mi Calm Calm - N/A   Clear
7:55 PM 50.9 °F - 31.5 °F 47% 29.61 in 10.0 mi South 4.6 mph - N/A   Clear
8:15 PM 50.2 °F - 32.0 °F 50% 29.61 in 10.0 mi Calm Calm - N/A   Clear
8:35 PM 49.3 °F - 32.0 °F 51% 29.60 in 10.0 mi South 3.5 mph - N/A   Clear
8:55 PM 49.1 °F - 32.0 °F 52% 29.59 in 10.0 mi Calm Calm - N/A   Clear
9:15 PM 47.8 °F - 32.0 °F 54% 29.58 in 10.0 mi Calm Calm - N/A   Clear
9:35 PM 47.5 °F - 32.0 °F 55% 29.58 in 10.0 mi South 3.5 mph - N/A   Clear
9:55 PM 48.0 °F - 32.0 °F 54% 29.56 in 10.0 mi South 5.8 mph - N/A   Clear
10:15 PM 48.4 °F - 32.0 °F 53% 29.55 in 10.0 mi South 4.6 mph - N/A   Clear
10:35 PM 48.4 °F - 31.6 °F 52% 29.54 in 10.0 mi Calm Calm - N/A   Clear
10:55 PM 48.6 °F - 31.5 °F 52% 29.53 in 10.0 mi Calm Calm - N/A   Clear
11:15 PM 48.2 °F - 31.1 °F 52% 29.52 in 10.0 mi Calm Calm - N/A   Clear
11:35 PM 47.8 °F - 31.1 °F 52% 29.51 in 10.0 mi South 5.8 mph - N/A   Clear
11:55 PM 48.2 °F - 30.9 °F 51% 29.50 in 10.0 mi South 4.6 mph - N/A   Clear